STW182 UUEE-LTBS

Flight info

Callsign STW182
Flight time 3h 53m
Altitude 32000
Route TOKNU3J TOKNU T288 STAPA M869 OPOKA/N0475F320 DCT LAUGA DCT VABER DCT GERVI M857 PODAN DCT KEKED/N0475F330 DCT NARKA DCT DVA DCT OSTOV DCT RODIP UN131 DUGLA UT350 NEXAM
Aircraft B77W/H-SDE2E3FGHIJ5LORVWXY/LB1D1

Departure

Time 2026-05-05 17:58
Airport Sheremetyevo International Airport (UUEE)

Arrival

Time 2026-05-05 21:51
Airport Dalaman International Airport (LTBS)
Time Latitude Longitude Altitude Speed Heading
2026-05-05 17:09 55.97700 37.41029 643 ft 0 kts 58°
2026-05-05 17:10 55.97696 37.41056 642 ft 0 kts 47°
2026-05-05 17:10 55.97698 37.41064 643 ft 0 kts 47°
2026-05-05 17:47 55.97697 37.41064 643 ft 0 kts 47°
2026-05-05 17:47 55.97690 37.41047 643 ft 2 kts 61°
2026-05-05 17:47 55.97685 37.41022 643 ft 2 kts 82°
2026-05-05 17:47 55.97685 37.40997 643 ft 2 kts 99°
2026-05-05 17:48 55.97689 37.40972 643 ft 1 kts 117°
2026-05-05 17:48 55.97697 37.40950 643 ft 2 kts 134°
2026-05-05 17:48 55.97708 37.40934 643 ft 2 kts 152°
2026-05-05 17:48 55.97721 37.40925 643 ft 0 kts 166°
2026-05-05 17:49 55.97724 37.40924 643 ft 0 kts 166°
2026-05-05 17:49 55.97723 37.40924 643 ft 0 kts 166°
2026-05-05 17:51 55.97722 37.40925 643 ft 2 kts 166°
2026-05-05 17:51 55.97698 37.40936 643 ft 4 kts 164°
2026-05-05 17:51 55.97674 37.40948 643 ft 4 kts 164°
2026-05-05 17:52 55.97648 37.40976 643 ft 5 kts 131°
2026-05-05 17:52 55.97637 37.41051 643 ft 8 kts 89°
2026-05-05 17:52 55.97615 37.41124 643 ft 6 kts 147°
2026-05-05 17:52 55.97580 37.41149 643 ft 5 kts 163°
2026-05-05 17:53 55.97542 37.41181 643 ft 5 kts 117°
2026-05-05 17:53 55.97548 37.41272 643 ft 13 kts 75°
2026-05-05 17:53 55.97588 37.41540 642 ft 21 kts 75°
2026-05-05 17:53 55.97627 37.41803 643 ft 23 kts 75°
2026-05-05 17:54 55.97670 37.42092 643 ft 25 kts 75°
2026-05-05 17:54 55.97715 37.42391 643 ft 23 kts 75°
2026-05-05 17:54 55.97755 37.42655 643 ft 20 kts 75°
2026-05-05 17:54 55.97790 37.42891 643 ft 20 kts 75°
2026-05-05 17:55 55.97833 37.43179 643 ft 27 kts 73°
2026-05-05 17:55 55.97881 37.43502 643 ft 25 kts 75°
2026-05-05 17:55 55.97924 37.43790 643 ft 19 kts 75°
2026-05-05 17:55 55.97941 37.43905 642 ft 2 kts 75°
2026-05-05 17:56 55.97947 37.43978 642 ft 8 kts 107°
2026-05-05 17:56 55.97885 37.44047 643 ft 11 kts 163°
2026-05-05 17:56 55.97816 37.44076 642 ft 8 kts 184°
2026-05-05 17:56 55.97785 37.44025 642 ft 6 kts 243°
2026-05-05 17:57 55.97761 37.43882 643 ft 24 kts 255°
2026-05-05 17:57 55.97671 37.43275 643 ft 80 kts 255°
2026-05-05 17:57 55.97478 37.41991 643 ft 134 kts 255°
2026-05-05 17:57 55.97196 37.40105 651 ft 178 kts 254°
2026-05-05 17:58 55.96864 37.37946 1056 ft 183 kts 251°
2026-05-05 17:58 55.96414 37.35803 1616 ft 187 kts 251°
2026-05-05 17:58 55.96134 37.33576 2054 ft 188 kts 262°
2026-05-05 17:58 55.95962 37.31275 2507 ft 187 kts 262°
2026-05-05 17:59 55.95772 37.28968 2906 ft 189 kts 262°
2026-05-05 17:59 55.95578 37.26659 3339 ft 189 kts 262°
2026-05-05 17:59 55.95387 37.24366 3780 ft 188 kts 262°
2026-05-05 17:59 55.95188 37.21976 3952 ft 204 kts 262°
2026-05-05 18:00 55.94973 37.19416 4104 ft 221 kts 262°
2026-05-05 18:00 55.94746 37.16605 4339 ft 237 kts 265°
2026-05-05 18:00 55.94980 37.13612 4541 ft 253 kts 293°
2026-05-05 18:00 55.96016 37.11101 5161 ft 255 kts 311°
2026-05-05 18:01 55.97253 37.08865 5788 ft 255 kts 311°
2026-05-05 18:01 55.98519 37.06604 6330 ft 258 kts 311°
2026-05-05 18:01 55.99777 37.04357 6935 ft 258 kts 311°
2026-05-05 18:01 56.01042 37.02095 7464 ft 261 kts 311°
2026-05-05 18:02 56.02330 36.99788 7952 ft 265 kts 311°
2026-05-05 18:02 56.03631 36.97456 8501 ft 267 kts 311°
2026-05-05 18:02 56.04931 36.95122 8998 ft 269 kts 310°
2026-05-05 18:02 56.06261 36.92734 9494 ft 272 kts 310°
2026-05-05 18:03 56.07584 36.90354 10025 ft 273 kts 310°
2026-05-05 18:03 56.08938 36.87914 10313 ft 284 kts 311°
2026-05-05 18:03 56.10379 36.85309 10428 ft 302 kts 310°
2026-05-05 18:03 56.11896 36.82562 10524 ft 320 kts 311°
2026-05-05 18:04 56.13496 36.79664 10666 ft 336 kts 311°
2026-05-05 18:04 56.15174 36.76622 10833 ft 351 kts 311°
2026-05-05 18:04 56.16898 36.73500 11295 ft 356 kts 311°
2026-05-05 18:04 56.18636 36.70350 11922 ft 358 kts 311°
2026-05-05 18:05 56.20382 36.67182 12540 ft 361 kts 311°
2026-05-05 18:05 56.22162 36.63948 13206 ft 364 kts 310°
2026-05-05 18:05 56.23922 36.60744 13880 ft 367 kts 311°
2026-05-05 18:05 56.25721 36.57466 14567 ft 371 kts 310°
2026-05-05 18:06 56.27529 36.54164 15281 ft 374 kts 311°
2026-05-05 18:06 56.28752 36.51931 15772 ft 376 kts 311°
2026-05-05 18:06 56.31180 36.47487 16699 ft 380 kts 311°
2026-05-05 18:06 56.33004 36.44002 17354 ft 383 kts 307°
2026-05-05 18:07 56.34550 36.40108 17962 ft 384 kts 298°
2026-05-05 18:07 56.35737 36.35854 18591 ft 385 kts 290°
2026-05-05 18:07 56.36550 36.31286 19306 ft 385 kts 281°
2026-05-05 18:07 56.36991 36.26572 20020 ft 385 kts 276°
2026-05-05 18:08 56.37328 36.21756 20697 ft 387 kts 276°
2026-05-05 18:08 56.37657 36.16968 21342 ft 389 kts 276°
2026-05-05 18:08 56.37989 36.12106 21927 ft 393 kts 276°
2026-05-05 18:08 56.38321 36.07220 22448 ft 397 kts 276°
2026-05-05 18:09 56.38652 36.02329 23002 ft 400 kts 276°
2026-05-05 18:09 56.38989 35.97323 23598 ft 402 kts 276°
2026-05-05 18:09 56.39322 35.92343 24201 ft 404 kts 276°
2026-05-05 18:09 56.39657 35.87292 24704 ft 407 kts 276°
2026-05-05 18:10 56.39990 35.82247 25216 ft 410 kts 276°
2026-05-05 18:10 56.40330 35.77070 25694 ft 414 kts 276°
2026-05-05 18:10 56.40662 35.71961 26169 ft 417 kts 276°
2026-05-05 18:10 56.40999 35.66765 26676 ft 419 kts 276°
2026-05-05 18:11 56.41333 35.61570 27146 ft 422 kts 276°
2026-05-05 18:11 56.41671 35.56313 27612 ft 424 kts 276°
2026-05-05 18:11 56.42007 35.51048 28072 ft 427 kts 276°
2026-05-05 18:11 56.42346 35.45710 28533 ft 429 kts 276°
2026-05-05 18:12 56.42683 35.40350 28960 ft 431 kts 276°
2026-05-05 18:12 56.43016 35.35034 29460 ft 432 kts 276°
2026-05-05 18:12 56.43348 35.29682 30136 ft 429 kts 276°
2026-05-05 18:12 56.43675 35.24383 30893 ft 423 kts 275°
2026-05-05 18:13 56.43994 35.19163 31555 ft 419 kts 275°
2026-05-05 18:13 56.44314 35.13893 31826 ft 422 kts 275°
2026-05-05 18:13 56.44630 35.08662 31831 ft 422 kts 275°
2026-05-05 18:14 56.45416 34.98262 31833 ft 421 kts 282°
2026-05-05 18:14 56.47491 34.88280 31826 ft 423 kts 292°
2026-05-05 18:15 56.49989 34.78639 31820 ft 425 kts 292°
2026-05-05 18:15 56.52466 34.69007 31822 ft 425 kts 292°
2026-05-05 18:16 56.54934 34.59339 31822 ft 425 kts 292°
2026-05-05 18:16 56.57392 34.49652 31816 ft 425 kts 292°
2026-05-05 18:17 56.59846 34.39938 31817 ft 426 kts 292°
2026-05-05 18:17 56.62293 34.30204 31815 ft 422 kts 291°
2026-05-05 18:18 56.64720 34.20501 31806 ft 425 kts 290°
2026-05-05 18:18 56.66361 34.10388 31796 ft 418 kts 276°
2026-05-05 18:19 56.66946 33.99960 31792 ft 417 kts 274°
2026-05-05 18:19 56.67473 33.89511 31788 ft 417 kts 273°
2026-05-05 18:20 56.67989 33.79048 31790 ft 418 kts 273°
2026-05-05 18:20 56.68493 33.68584 31789 ft 417 kts 273°
2026-05-05 18:21 56.68988 33.58121 31786 ft 416 kts 273°
2026-05-05 18:21 56.69476 33.47616 31790 ft 417 kts 273°
2026-05-05 18:22 56.69951 33.37177 31799 ft 417 kts 273°
2026-05-05 18:22 56.70417 33.26749 31810 ft 417 kts 272°
2026-05-05 18:23 56.70877 33.16248 31813 ft 416 kts 272°
2026-05-05 18:23 56.71324 33.05844 31811 ft 414 kts 272°
2026-05-05 18:24 56.71762 32.95431 31812 ft 415 kts 272°
2026-05-05 18:24 56.72193 32.85000 31812 ft 416 kts 272°
2026-05-05 18:25 56.72618 32.74490 31810 ft 414 kts 272°
2026-05-05 18:25 56.73030 32.64079 31806 ft 416 kts 272°
2026-05-05 18:26 56.73434 32.53643 31809 ft 413 kts 272°
2026-05-05 18:26 56.73830 32.43208 31811 ft 417 kts 272°
2026-05-05 18:27 56.74218 32.32747 31816 ft 415 kts 271°
2026-05-05 18:27 56.74597 32.22271 31814 ft 414 kts 271°
2026-05-05 18:28 56.75147 32.06624 31818 ft 414 kts 270°
2026-05-05 18:28 56.75503 31.96181 31816 ft 414 kts 271°
2026-05-05 18:29 56.75850 31.85750 31812 ft 413 kts 271°
2026-05-05 18:29 56.76188 31.75338 31810 ft 413 kts 270°
2026-05-05 18:30 56.76517 31.64910 31806 ft 413 kts 270°
2026-05-05 18:30 56.76836 31.54545 31809 ft 413 kts 270°
2026-05-05 18:31 56.77148 31.44123 31801 ft 412 kts 270°
2026-05-05 18:31 56.77449 31.33754 31795 ft 413 kts 270°
2026-05-05 18:32 56.77743 31.23340 31788 ft 411 kts 269°
2026-05-05 18:32 56.78027 31.12986 31794 ft 414 kts 270°
2026-05-05 18:33 56.78351 31.02551 31798 ft 413 kts 270°
2026-05-05 18:33 56.78672 30.92115 31793 ft 414 kts 270°
2026-05-05 18:34 56.78983 30.81643 31791 ft 414 kts 270°
2026-05-05 18:34 56.79284 30.71208 31797 ft 413 kts 270°
2026-05-05 18:35 56.79339 30.60847 31794 ft 412 kts 266°
2026-05-05 18:35 56.79280 30.50443 31804 ft 411 kts 267°
2026-05-05 18:36 56.79227 30.40095 31802 ft 411 kts 267°
2026-05-05 18:36 56.79171 30.29689 31810 ft 411 kts 266°
2026-05-05 18:37 56.79113 30.19308 31811 ft 412 kts 266°
2026-05-05 18:37 56.79053 30.08976 31813 ft 412 kts 266°
2026-05-05 18:38 56.78984 29.98574 31818 ft 413 kts 266°
2026-05-05 18:38 56.78907 29.88168 31809 ft 411 kts 266°
2026-05-05 18:39 56.78821 29.77816 31807 ft 411 kts 266°
2026-05-05 18:39 56.78727 29.67421 31806 ft 411 kts 265°
2026-05-05 18:40 56.78624 29.56986 31807 ft 412 kts 266°
2026-05-05 18:40 56.78512 29.46619 31811 ft 412 kts 266°
2026-05-05 18:41 56.78392 29.36266 31801 ft 412 kts 265°
2026-05-05 18:41 56.78264 29.25870 31817 ft 410 kts 265°
2026-05-05 18:42 56.78127 29.15526 31812 ft 411 kts 265°
2026-05-05 18:42 56.77973 29.05133 31810 ft 411 kts 264°
2026-05-05 18:43 56.77760 28.94739 31813 ft 412 kts 264°
2026-05-05 18:43 56.77539 28.84349 31809 ft 413 kts 265°
2026-05-05 18:44 56.77313 28.74019 31812 ft 411 kts 264°
2026-05-05 18:44 56.77077 28.63642 31811 ft 411 kts 264°
2026-05-05 18:45 56.76833 28.53249 31816 ft 411 kts 264°
2026-05-05 18:45 56.76581 28.42875 31810 ft 410 kts 265°
2026-05-05 18:46 56.76322 28.32546 31826 ft 410 kts 264°
2026-05-05 18:46 56.76053 28.22195 31827 ft 409 kts 264°
2026-05-05 18:47 56.75777 28.11901 31835 ft 408 kts 264°
2026-05-05 18:47 56.75493 28.01636 31828 ft 408 kts 263°
2026-05-05 18:48 56.74407 27.91584 31830 ft 406 kts 250°
2026-05-05 18:48 56.71920 27.82505 31829 ft 403 kts 237°
2026-05-05 18:49 56.68619 27.74285 31817 ft 403 kts 235°
2026-05-05 18:49 56.65287 27.66133 31817 ft 405 kts 234°
2026-05-05 18:50 56.61935 27.57994 31816 ft 403 kts 234°
2026-05-05 18:50 56.58574 27.49870 31822 ft 406 kts 234°
2026-05-05 18:51 56.55197 27.41743 31818 ft 405 kts 234°
2026-05-05 18:51 56.51795 27.33586 31833 ft 407 kts 234°
2026-05-05 18:52 56.48391 27.25452 31834 ft 406 kts 234°
2026-05-05 18:52 56.44999 27.17376 31840 ft 408 kts 234°
2026-05-05 18:53 56.41573 27.09246 31842 ft 407 kts 234°
2026-05-05 18:53 56.38158 27.01170 31845 ft 408 kts 234°
2026-05-05 18:54 56.34719 26.93063 31843 ft 406 kts 234°
2026-05-05 18:54 56.31295 26.85019 31842 ft 407 kts 234°
2026-05-05 18:55 56.27871 26.77003 31839 ft 407 kts 234°
2026-05-05 18:55 56.24457 26.69033 31836 ft 406 kts 234°
2026-05-05 18:56 56.20991 26.60972 31839 ft 409 kts 234°
2026-05-05 18:56 56.17530 26.52948 31840 ft 407 kts 234°
2026-05-05 18:57 56.14077 26.44968 31838 ft 407 kts 234°
2026-05-05 18:57 56.10610 26.36982 31838 ft 408 kts 234°
2026-05-05 18:58 56.07142 26.29020 31842 ft 409 kts 233°
2026-05-05 18:58 56.03650 26.21031 31847 ft 409 kts 232°
2026-05-05 18:59 56.00155 26.13061 31841 ft 408 kts 233°
2026-05-05 18:59 55.96662 26.05167 31836 ft 410 kts 230°
2026-05-05 19:00 55.92532 25.98100 31843 ft 412 kts 224°
2026-05-05 19:00 55.88299 25.91402 31851 ft 413 kts 224°
2026-05-05 19:01 55.84034 25.84690 31853 ft 411 kts 224°
2026-05-05 19:01 55.79745 25.77967 31855 ft 414 kts 224°
2026-05-05 19:02 55.75466 25.71285 31855 ft 411 kts 223°
2026-05-05 19:02 55.71168 25.64594 31857 ft 414 kts 224°
2026-05-05 19:03 55.66830 25.57863 31859 ft 415 kts 224°
2026-05-05 19:03 55.62537 25.51222 31858 ft 414 kts 224°
2026-05-05 19:04 55.58228 25.44577 31856 ft 414 kts 223°
2026-05-05 19:04 55.53880 25.37892 31858 ft 415 kts 223°
2026-05-05 19:05 55.49536 25.31232 31864 ft 417 kts 223°
2026-05-05 19:05 55.45167 25.24556 31866 ft 417 kts 223°
2026-05-05 19:06 55.40812 25.17922 31865 ft 417 kts 223°
2026-05-05 19:06 55.36423 25.11255 31865 ft 417 kts 222°
2026-05-05 19:07 55.32066 25.04658 31874 ft 416 kts 223°
2026-05-05 19:07 55.27688 24.98048 31877 ft 417 kts 223°
2026-05-05 19:08 55.23300 24.91442 31878 ft 419 kts 223°
2026-05-05 19:08 55.18878 24.84807 31875 ft 417 kts 223°
2026-05-05 19:09 55.14487 24.78238 31877 ft 420 kts 223°
2026-05-05 19:09 55.10051 24.71620 31869 ft 419 kts 223°
2026-05-05 19:10 55.05627 24.65043 31873 ft 421 kts 223°
2026-05-05 19:10 55.01189 24.58462 31874 ft 421 kts 223°
2026-05-05 19:11 54.96748 24.51898 31879 ft 420 kts 223°
2026-05-05 19:11 54.92284 24.45318 31873 ft 422 kts 223°
2026-05-05 19:12 54.87846 24.38798 31874 ft 425 kts 223°
2026-05-05 19:12 54.83364 24.32233 31887 ft 422 kts 222°
2026-05-05 19:13 54.78907 24.25723 31883 ft 426 kts 222°
2026-05-05 19:13 54.74400 24.19160 31872 ft 424 kts 222°
2026-05-05 19:14 54.69870 24.12583 31862 ft 428 kts 222°
2026-05-05 19:14 54.65305 24.05977 31860 ft 427 kts 222°
2026-05-05 19:15 54.60794 23.99468 31858 ft 428 kts 222°
2026-05-05 19:15 54.56248 23.92927 31856 ft 428 kts 222°
2026-05-05 19:16 54.51696 23.86398 31859 ft 428 kts 222°
2026-05-05 19:16 54.47121 23.79855 31859 ft 430 kts 222°
2026-05-05 19:17 54.42562 23.73356 31862 ft 429 kts 222°
2026-05-05 19:17 54.37947 23.66796 31865 ft 431 kts 222°
2026-05-05 19:18 54.33341 23.60269 31863 ft 431 kts 222°
2026-05-05 19:18 54.28747 23.53777 31863 ft 431 kts 223°
2026-05-05 19:19 54.24111 23.47246 31859 ft 432 kts 222°
2026-05-05 19:19 54.19254 23.41228 31856 ft 437 kts 212°
2026-05-05 19:20 54.13651 23.37227 31860 ft 442 kts 205°
2026-05-05 19:20 54.07890 23.33590 31866 ft 444 kts 204°
2026-05-05 19:21 54.02119 23.29992 31865 ft 444 kts 204°
2026-05-05 19:21 53.96365 23.26433 31863 ft 442 kts 204°
2026-05-05 19:22 53.90536 23.22844 31859 ft 446 kts 204°
2026-05-05 19:22 53.84743 23.19295 31861 ft 443 kts 204°
2026-05-05 19:23 53.78960 23.15761 31858 ft 447 kts 203°
2026-05-05 19:23 53.73132 23.12214 31852 ft 446 kts 204°
2026-05-05 19:24 53.67298 23.08672 31855 ft 448 kts 203°
2026-05-05 19:24 53.61438 23.05127 31855 ft 447 kts 204°
2026-05-05 19:25 53.55608 23.01609 31855 ft 449 kts 203°
2026-05-05 19:25 53.49774 22.98100 31854 ft 448 kts 204°
2026-05-05 19:26 53.43954 22.94609 31852 ft 451 kts 203°
2026-05-05 19:26 53.38073 22.91093 31852 ft 449 kts 203°
2026-05-05 19:27 53.32188 22.87583 31851 ft 452 kts 204°
2026-05-05 19:27 53.26294 22.84080 31847 ft 451 kts 203°
2026-05-05 19:28 53.20428 22.80603 31839 ft 452 kts 203°
2026-05-05 19:28 53.14572 22.77143 31842 ft 452 kts 203°
2026-05-05 19:29 53.08632 22.73642 31842 ft 454 kts 203°
2026-05-05 19:29 53.02721 22.70169 31832 ft 453 kts 203°
2026-05-05 19:30 52.96774 22.66684 31830 ft 456 kts 203°
2026-05-05 19:30 52.90865 22.63232 31828 ft 456 kts 203°
2026-05-05 19:31 52.84948 22.59786 31824 ft 457 kts 203°
2026-05-05 19:31 52.78939 22.56296 31819 ft 457 kts 203°
2026-05-05 19:32 52.73003 22.52859 31812 ft 456 kts 203°
2026-05-05 19:32 52.66994 22.49389 31814 ft 457 kts 203°
2026-05-05 19:33 52.61010 22.45944 31816 ft 459 kts 203°
2026-05-05 19:33 52.55005 22.42497 31816 ft 458 kts 203°
2026-05-05 19:34 52.49059 22.39093 31817 ft 460 kts 202°
2026-05-05 19:35 52.40017 22.33936 31811 ft 461 kts 201°
2026-05-05 19:35 52.33976 22.30504 31811 ft 462 kts 202°
2026-05-05 19:36 52.27954 22.27091 31808 ft 463 kts 201°
2026-05-05 19:36 52.21878 22.23658 31804 ft 464 kts 201°
2026-05-05 19:37 52.15761 22.20314 31801 ft 466 kts 197°
2026-05-05 19:37 52.09419 22.18269 31800 ft 469 kts 193°
2026-05-05 19:38 52.03056 22.16381 31803 ft 468 kts 192°
2026-05-05 19:38 51.96656 22.14489 31802 ft 468 kts 192°
2026-05-05 19:39 51.90280 22.12609 31802 ft 467 kts 192°
2026-05-05 19:39 51.83934 22.10744 31797 ft 467 kts 192°
2026-05-05 19:40 51.77558 22.08878 31799 ft 467 kts 192°
2026-05-05 19:40 51.71171 22.07017 31803 ft 467 kts 192°
2026-05-05 19:41 51.64816 22.05171 31814 ft 467 kts 192°
2026-05-05 19:41 51.58436 22.03322 31821 ft 467 kts 192°
2026-05-05 19:42 51.52084 22.01480 31818 ft 467 kts 192°
2026-05-05 19:42 51.45728 21.99642 31822 ft 466 kts 192°
2026-05-05 19:43 51.39379 21.97823 31823 ft 466 kts 192°
2026-05-05 19:43 51.33045 21.96066 31825 ft 465 kts 192°
2026-05-05 19:44 51.26694 21.94309 31828 ft 465 kts 192°
2026-05-05 19:44 51.20356 21.92559 31832 ft 465 kts 192°
2026-05-05 19:45 51.14021 21.90813 31829 ft 464 kts 192°
2026-05-05 19:45 51.07666 21.89034 31836 ft 464 kts 192°
2026-05-05 19:46 51.01348 21.87264 31839 ft 464 kts 192°
2026-05-05 19:46 50.94978 21.85482 31849 ft 464 kts 192°
2026-05-05 19:47 50.88672 21.83723 31847 ft 465 kts 192°
2026-05-05 19:47 50.82340 21.81962 31847 ft 465 kts 192°
2026-05-05 19:48 50.76012 21.80208 31838 ft 464 kts 192°
2026-05-05 19:48 50.69751 21.78477 31838 ft 464 kts 192°
2026-05-05 19:49 50.63406 21.76727 31839 ft 464 kts 192°
2026-05-05 19:49 50.57139 21.75003 31839 ft 463 kts 192°
2026-05-05 19:50 50.50829 21.73269 31839 ft 464 kts 191°
2026-05-05 19:50 50.44499 21.71536 31840 ft 464 kts 191°
2026-05-05 19:51 50.38166 21.69806 31841 ft 464 kts 191°
2026-05-05 19:51 50.31822 21.68078 31845 ft 463 kts 191°
2026-05-05 19:52 50.25482 21.66356 31855 ft 463 kts 191°
2026-05-05 19:52 50.19167 21.64645 31855 ft 463 kts 191°
2026-05-05 19:53 50.12852 21.62939 31860 ft 463 kts 191°
2026-05-05 19:53 50.06564 21.61245 31859 ft 463 kts 191°
2026-05-05 19:54 50.00223 21.59541 31864 ft 463 kts 191°
2026-05-05 19:54 49.93900 21.57846 31868 ft 463 kts 191°
2026-05-05 19:55 49.87610 21.56165 31869 ft 463 kts 191°
2026-05-05 19:55 49.81285 21.54479 31871 ft 462 kts 191°
2026-05-05 19:56 49.74978 21.52801 31871 ft 462 kts 191°
2026-05-05 19:56 49.68748 21.51149 31873 ft 462 kts 191°
2026-05-05 19:57 49.62422 21.49476 31884 ft 462 kts 191°
2026-05-05 19:57 49.56138 21.47818 31892 ft 463 kts 191°
2026-05-05 19:58 49.49829 21.46158 31904 ft 463 kts 191°
2026-05-05 19:58 49.43508 21.44499 31907 ft 461 kts 191°
2026-05-05 19:59 49.37196 21.43093 31902 ft 462 kts 187°
2026-05-05 19:59 49.30807 21.42076 31902 ft 463 kts 187°
2026-05-05 20:00 49.24442 21.41040 31894 ft 462 kts 187°
2026-05-05 20:00 49.18030 21.39983 31905 ft 463 kts 187°
2026-05-05 20:01 49.11660 21.38927 31914 ft 464 kts 187°
2026-05-05 20:01 49.05240 21.37860 31905 ft 463 kts 187°
2026-05-05 20:02 48.98895 21.36807 31909 ft 463 kts 187°
2026-05-05 20:02 48.92513 21.35748 31914 ft 468 kts 187°
2026-05-05 20:02 48.89268 21.35210 32157 ft 472 kts 187°
2026-05-05 20:03 48.86044 21.34677 32686 ft 470 kts 187°
2026-05-05 20:03 48.82778 21.34138 32904 ft 473 kts 187°
2026-05-05 20:03 48.79529 21.33602 32908 ft 469 kts 187°
2026-05-05 20:04 48.73113 21.32546 32910 ft 467 kts 187°
2026-05-05 20:04 48.66669 21.31487 32908 ft 467 kts 187°
2026-05-05 20:05 48.60190 21.30426 32905 ft 467 kts 187°
2026-05-05 20:05 48.53759 21.29671 32908 ft 468 kts 179°
2026-05-05 20:06 48.47373 21.31386 32907 ft 471 kts 164°
2026-05-05 20:06 48.41124 21.34229 32902 ft 472 kts 164°
2026-05-05 20:07 48.34836 21.37097 32903 ft 472 kts 164°
2026-05-05 20:07 48.28554 21.39951 32902 ft 473 kts 164°
2026-05-05 20:08 48.22263 21.42801 32897 ft 473 kts 164°
2026-05-05 20:08 48.16017 21.45623 32896 ft 473 kts 164°
2026-05-05 20:09 48.09703 21.48467 32899 ft 473 kts 164°
2026-05-05 20:09 48.03432 21.51285 32903 ft 473 kts 164°
2026-05-05 20:10 47.97119 21.54113 32906 ft 475 kts 164°
2026-05-05 20:10 47.90823 21.56927 32911 ft 475 kts 164°
2026-05-05 20:11 47.84495 21.59748 32913 ft 475 kts 164°
2026-05-05 20:11 47.78183 21.62555 32914 ft 475 kts 164°
2026-05-05 20:12 47.71865 21.65358 32916 ft 475 kts 165°
2026-05-05 20:12 47.65575 21.68141 32915 ft 475 kts 165°
2026-05-05 20:13 47.59211 21.70949 32918 ft 477 kts 165°
2026-05-05 20:13 47.52878 21.73737 32922 ft 477 kts 165°
2026-05-05 20:14 47.46531 21.76524 32926 ft 477 kts 165°
2026-05-05 20:14 47.40202 21.79295 32924 ft 477 kts 165°
2026-05-05 20:15 47.33842 21.82074 32924 ft 478 kts 165°
2026-05-05 20:15 47.27442 21.84863 32930 ft 479 kts 165°
2026-05-05 20:16 47.21377 21.88735 32937 ft 482 kts 152°
2026-05-05 20:16 47.15506 21.93458 32934 ft 482 kts 152°
2026-05-05 20:17 47.09637 21.98169 32934 ft 481 kts 152°
2026-05-05 20:17 47.03786 22.02847 32941 ft 482 kts 152°
2026-05-05 20:18 46.97884 22.07551 32945 ft 482 kts 152°
2026-05-05 20:18 46.92035 22.12198 32945 ft 482 kts 152°
2026-05-05 20:19 46.86123 22.16884 32949 ft 483 kts 152°
2026-05-05 20:19 46.80233 22.21539 32950 ft 483 kts 152°
2026-05-05 20:20 46.74367 22.26164 32947 ft 484 kts 152°
2026-05-05 20:20 46.68455 22.30813 32964 ft 484 kts 152°
2026-05-05 20:21 46.62517 22.35471 32980 ft 484 kts 152°
2026-05-05 20:21 46.56611 22.40092 32991 ft 484 kts 152°
2026-05-05 20:22 46.50720 22.44690 32991 ft 485 kts 152°
2026-05-05 20:22 46.44778 22.49315 32991 ft 486 kts 152°
2026-05-05 20:23 46.38821 22.53942 33004 ft 485 kts 152°
2026-05-05 20:23 46.32889 22.58537 33012 ft 485 kts 152°
2026-05-05 20:24 46.26936 22.63137 33012 ft 486 kts 152°
2026-05-05 20:24 46.21020 22.67697 33001 ft 487 kts 152°
2026-05-05 20:25 46.15057 22.72283 32996 ft 486 kts 152°
2026-05-05 20:25 46.09112 22.76843 32996 ft 487 kts 152°
2026-05-05 20:26 46.03141 22.81412 33004 ft 487 kts 152°
2026-05-05 20:26 45.97145 22.85987 32999 ft 487 kts 152°
2026-05-05 20:27 45.91197 22.90517 32998 ft 489 kts 152°
2026-05-05 20:27 45.85202 22.95069 32988 ft 488 kts 152°
2026-05-05 20:28 45.78901 22.98510 32990 ft 488 kts 164°
2026-05-05 20:28 45.72377 23.01270 32989 ft 488 kts 164°
2026-05-05 20:29 45.65882 23.03999 32994 ft 488 kts 164°
2026-05-05 20:29 45.59415 23.06709 33002 ft 488 kts 164°
2026-05-05 20:30 45.52889 23.09436 33021 ft 489 kts 164°
2026-05-05 20:30 45.46397 23.12141 33042 ft 491 kts 164°
2026-05-05 20:31 45.39834 23.14870 33062 ft 490 kts 164°
2026-05-05 20:31 45.33317 23.17572 33066 ft 491 kts 164°
2026-05-05 20:32 45.26746 23.20291 33067 ft 491 kts 164°
2026-05-05 20:32 45.20219 23.22984 33046 ft 491 kts 164°
2026-05-05 20:33 45.13663 23.25683 33024 ft 492 kts 164°
2026-05-05 20:33 45.07153 23.28357 33015 ft 493 kts 164°
2026-05-05 20:34 45.00555 23.31061 33005 ft 493 kts 164°
2026-05-05 20:34 44.93960 23.33756 33005 ft 495 kts 164°
2026-05-05 20:35 44.87394 23.36434 32995 ft 494 kts 164°
2026-05-05 20:35 44.80778 23.39125 32993 ft 495 kts 164°
2026-05-05 20:36 44.74169 23.41807 32993 ft 495 kts 164°
2026-05-05 20:36 44.67554 23.44485 32991 ft 496 kts 164°
2026-05-05 20:37 44.60920 23.47164 32993 ft 497 kts 164°
2026-05-05 20:37 44.54330 23.49820 32995 ft 497 kts 164°
2026-05-05 20:38 44.47665 23.52499 32993 ft 498 kts 164°
2026-05-05 20:38 44.41046 23.55154 32989 ft 498 kts 164°
2026-05-05 20:39 44.34357 23.57830 32995 ft 498 kts 164°
2026-05-05 20:39 44.27694 23.60490 32999 ft 500 kts 164°
2026-05-05 20:40 44.21040 23.63139 33003 ft 499 kts 164°
2026-05-05 20:40 44.14368 23.65790 32990 ft 500 kts 165°
2026-05-05 20:41 44.07678 23.68441 32989 ft 501 kts 165°
2026-05-05 20:41 44.01013 23.71077 32985 ft 500 kts 165°
2026-05-05 20:42 43.94323 23.73716 32993 ft 501 kts 165°
2026-05-05 20:42 43.87640 23.76346 32988 ft 502 kts 165°
2026-05-05 20:43 43.80974 23.78963 32991 ft 501 kts 165°
2026-05-05 20:43 43.74296 23.81593 32991 ft 502 kts 165°
2026-05-05 20:44 43.67557 23.84263 32998 ft 503 kts 165°
2026-05-05 20:44 43.60848 23.86915 32997 ft 503 kts 165°
2026-05-05 20:45 43.50800 23.90873 32994 ft 502 kts 165°
2026-05-05 20:45 43.44093 23.93507 32999 ft 503 kts 165°
2026-05-05 20:46 43.37367 23.96142 33008 ft 504 kts 165°
2026-05-05 20:46 43.30633 23.98774 33011 ft 504 kts 165°
2026-05-05 20:47 43.23907 24.01397 33016 ft 505 kts 165°
2026-05-05 20:47 43.17123 24.04036 33017 ft 505 kts 165°
2026-05-05 20:48 43.10401 24.06645 33021 ft 505 kts 165°
2026-05-05 20:48 43.03673 24.09251 33028 ft 505 kts 165°
2026-05-05 20:49 42.96885 24.11874 33041 ft 506 kts 165°
2026-05-05 20:49 42.90123 24.14480 33065 ft 507 kts 165°
2026-05-05 20:50 42.83371 24.17077 33084 ft 507 kts 165°
2026-05-05 20:50 42.76566 24.19689 33092 ft 507 kts 165°
2026-05-05 20:51 42.69807 24.22276 33096 ft 506 kts 165°
2026-05-05 20:51 42.63029 24.24866 33093 ft 507 kts 165°
2026-05-05 20:52 42.56281 24.27438 33073 ft 507 kts 165°
2026-05-05 20:52 42.49471 24.30028 33064 ft 507 kts 165°
2026-05-05 20:53 42.42672 24.32607 33060 ft 508 kts 165°
2026-05-05 20:53 42.35904 24.35169 33056 ft 508 kts 165°
2026-05-05 20:54 42.29097 24.37741 33056 ft 507 kts 165°
2026-05-05 20:54 42.22290 24.40306 33052 ft 510 kts 165°
2026-05-05 20:55 42.15500 24.42860 33067 ft 510 kts 165°
2026-05-05 20:55 42.08666 24.45424 33074 ft 509 kts 165°
2026-05-05 20:56 42.01849 24.47975 33083 ft 510 kts 165°
2026-05-05 20:56 41.95008 24.50531 33094 ft 510 kts 165°
2026-05-05 20:57 41.88232 24.53056 33096 ft 509 kts 165°
2026-05-05 20:57 41.81371 24.55607 33094 ft 512 kts 165°
2026-05-05 20:58 41.74517 24.58151 33099 ft 512 kts 165°
2026-05-05 20:58 41.67656 24.60691 33104 ft 512 kts 165°
2026-05-05 20:59 41.60815 24.63218 33105 ft 512 kts 165°
2026-05-05 20:59 41.53966 24.65742 33095 ft 511 kts 166°
2026-05-05 21:00 41.47124 24.68264 33084 ft 513 kts 165°
2026-05-05 21:00 41.40672 24.72198 33081 ft 515 kts 146°
2026-05-05 21:01 41.35142 24.78238 33080 ft 512 kts 137°
2026-05-05 21:01 41.29832 24.84559 33074 ft 513 kts 137°
2026-05-05 21:02 41.24525 24.90845 33072 ft 513 kts 137°
2026-05-05 21:02 41.19227 24.97094 33065 ft 512 kts 137°
2026-05-05 21:03 41.13876 25.03385 33061 ft 514 kts 137°
2026-05-05 21:03 41.08532 25.09651 33064 ft 515 kts 137°
2026-05-05 21:04 41.03198 25.15888 33062 ft 513 kts 137°
2026-05-05 21:04 40.97841 25.22138 33068 ft 514 kts 137°
2026-05-05 21:05 40.92486 25.28370 33064 ft 513 kts 137°
2026-05-05 21:05 40.87132 25.34588 33057 ft 516 kts 137°
2026-05-05 21:06 40.81731 25.40846 33058 ft 515 kts 136°
2026-05-05 21:06 40.76734 25.47484 33060 ft 513 kts 128°
2026-05-05 21:07 40.72081 25.54631 33058 ft 514 kts 128°
2026-05-05 21:07 40.67448 25.61739 33058 ft 513 kts 127°
2026-05-05 21:08 40.62806 25.68838 33058 ft 513 kts 128°
2026-05-05 21:08 40.58141 25.75954 33059 ft 514 kts 128°
2026-05-05 21:09 40.53473 25.83056 33061 ft 515 kts 128°
2026-05-05 21:09 40.48787 25.90162 33061 ft 515 kts 128°
2026-05-05 21:10 40.44083 25.97201 33062 ft 516 kts 128°
2026-05-05 21:10 40.39360 26.04250 33065 ft 516 kts 128°
2026-05-05 21:11 40.34629 26.11295 33061 ft 517 kts 128°
2026-05-05 21:11 40.29911 26.18307 33066 ft 516 kts 128°
2026-05-05 21:12 40.25161 26.25350 33073 ft 514 kts 128°
2026-05-05 21:12 40.20450 26.32321 33076 ft 515 kts 128°
2026-05-05 21:13 40.15726 26.39295 33074 ft 513 kts 128°
2026-05-05 21:13 40.10877 26.46184 33082 ft 518 kts 133°
2026-05-05 21:14 40.05737 26.52712 33074 ft 516 kts 133°
2026-05-05 21:14 40.00592 26.59253 33073 ft 518 kts 133°
2026-05-05 21:15 39.95461 26.65788 33079 ft 517 kts 134°
2026-05-05 21:15 39.90337 26.72314 33082 ft 517 kts 133°
2026-05-05 21:16 39.85215 26.78832 33078 ft 517 kts 133°
2026-05-05 21:16 39.80068 26.85373 33071 ft 517 kts 133°
2026-05-05 21:17 39.74926 26.91857 33079 ft 516 kts 134°
2026-05-05 21:17 39.69709 26.98251 33072 ft 516 kts 134°
2026-05-05 21:18 39.64484 27.04642 33071 ft 518 kts 134°
2026-05-05 21:18 39.59290 27.10989 33073 ft 516 kts 134°
2026-05-05 21:19 39.54072 27.17352 33070 ft 516 kts 134°
2026-05-05 21:19 39.48593 27.23267 33065 ft 515 kts 147°
2026-05-05 21:20 39.42416 27.27880 33076 ft 517 kts 150°
2026-05-05 21:20 39.36172 27.32417 33082 ft 516 kts 150°
2026-05-05 21:21 39.29900 27.36964 33081 ft 516 kts 150°
2026-05-05 21:21 39.23678 27.41466 33085 ft 516 kts 150°
2026-05-05 21:22 39.17396 27.46001 33083 ft 517 kts 150°
2026-05-05 21:22 39.11120 27.50522 33083 ft 517 kts 150°
2026-05-05 21:23 39.04861 27.55022 33085 ft 516 kts 150°
2026-05-05 21:23 38.98623 27.59498 33083 ft 517 kts 150°
2026-05-05 21:24 38.92361 27.63981 33089 ft 518 kts 150°
2026-05-05 21:24 38.86066 27.68479 33075 ft 515 kts 151°
2026-05-05 21:25 38.79835 27.72922 33068 ft 515 kts 151°
2026-05-05 21:25 38.73571 27.77380 33082 ft 516 kts 151°
2026-05-05 21:26 38.67287 27.81844 33079 ft 517 kts 151°
2026-05-05 21:26 38.61012 27.86291 33074 ft 518 kts 151°
2026-05-05 21:27 38.54722 27.90740 33078 ft 518 kts 151°
2026-05-05 21:27 38.48426 27.95184 33085 ft 517 kts 151°
2026-05-05 21:28 38.42130 27.99620 33076 ft 517 kts 151°
2026-05-05 21:28 38.35870 28.04021 33080 ft 517 kts 151°
2026-05-05 21:29 38.29592 28.08426 33082 ft 517 kts 151°
2026-05-05 21:29 38.23293 28.12838 33065 ft 517 kts 151°
2026-05-05 21:30 38.17022 28.17221 32878 ft 509 kts 151°
2026-05-05 21:30 38.13924 28.19383 31977 ft 513 kts 151°
2026-05-05 21:30 38.10766 28.21585 30889 ft 521 kts 151°
2026-05-05 21:31 38.07605 28.23787 30202 ft 519 kts 151°
2026-05-05 21:31 38.04465 28.25971 29727 ft 512 kts 151°
2026-05-05 21:31 38.01387 28.28112 29200 ft 507 kts 151°
2026-05-05 21:31 37.98333 28.30233 28638 ft 503 kts 151°
2026-05-05 21:32 37.95258 28.32366 28058 ft 499 kts 151°
2026-05-05 21:32 37.92250 28.34451 27492 ft 495 kts 151°
2026-05-05 21:32 37.89249 28.36529 26903 ft 491 kts 151°
2026-05-05 21:32 37.86241 28.38611 26316 ft 487 kts 151°
2026-05-05 21:33 37.83299 28.40644 25735 ft 483 kts 151°
2026-05-05 21:33 37.80386 28.42656 25173 ft 478 kts 151°
2026-05-05 21:33 37.77473 28.44665 24588 ft 474 kts 151°
2026-05-05 21:33 37.74580 28.46659 24011 ft 470 kts 151°
2026-05-05 21:34 37.71722 28.48627 23440 ft 466 kts 151°
2026-05-05 21:34 37.68915 28.50559 22870 ft 462 kts 151°
2026-05-05 21:34 37.66097 28.52496 22289 ft 458 kts 151°
2026-05-05 21:34 37.63345 28.54387 21727 ft 454 kts 151°
2026-05-05 21:35 37.60575 28.56288 21164 ft 450 kts 151°
2026-05-05 21:35 37.57852 28.58155 20596 ft 446 kts 151°
2026-05-05 21:35 37.55087 28.59905 20024 ft 442 kts 158°
2026-05-05 21:35 37.52185 28.61064 19454 ft 436 kts 169°
2026-05-05 21:36 37.49229 28.61568 18965 ft 428 kts 180°
2026-05-05 21:36 37.46275 28.61409 18631 ft 416 kts 191°
2026-05-05 21:36 37.43467 28.60712 18331 ft 413 kts 196°
2026-05-05 21:36 37.40660 28.59862 18023 ft 413 kts 197°
2026-05-05 21:37 37.37876 28.58978 17714 ft 411 kts 198°
2026-05-05 21:37 37.35137 28.58078 17408 ft 409 kts 198°
2026-05-05 21:37 37.32389 28.57193 17097 ft 408 kts 194°
2026-05-05 21:37 37.29568 28.56796 16799 ft 411 kts 182°
2026-05-05 21:38 37.26693 28.57062 16484 ft 411 kts 171°
2026-05-05 21:38 37.23937 28.57822 16181 ft 409 kts 167°
2026-05-05 21:38 37.21191 28.58708 15874 ft 405 kts 162°
2026-05-05 21:38 37.18647 28.60066 15750 ft 390 kts 150°
2026-05-05 21:39 37.16428 28.61943 15635 ft 375 kts 138°
2026-05-05 21:39 37.14667 28.64199 15518 ft 359 kts 124°
2026-05-05 21:39 37.13421 28.66823 15208 ft 349 kts 109°
2026-05-05 21:39 37.12765 28.69714 14706 ft 340 kts 92°
2026-05-05 21:40 37.12730 28.72600 14260 ft 327 kts 77°
2026-05-05 21:40 37.13164 28.75309 13881 ft 315 kts 71°
2026-05-05 21:40 37.13642 28.77967 13514 ft 309 kts 73°
2026-05-05 21:40 37.14057 28.80575 13157 ft 303 kts 74°
2026-05-05 21:41 37.14437 28.83161 12779 ft 300 kts 75°
2026-05-05 21:41 37.14797 28.85694 12406 ft 297 kts 75°
2026-05-05 21:41 37.15154 28.88245 12038 ft 293 kts 76°
2026-05-05 21:41 37.15496 28.90708 11698 ft 289 kts 76°
2026-05-05 21:42 37.15749 28.93221 11317 ft 290 kts 88°
2026-05-05 21:42 37.15255 28.95634 10949 ft 294 kts 115°
2026-05-05 21:42 37.14015 28.97664 10632 ft 291 kts 133°
2026-05-05 21:42 37.12571 28.99394 10323 ft 285 kts 136°
2026-05-05 21:43 37.11107 29.01044 10017 ft 279 kts 137°
2026-05-05 21:43 37.09689 29.02631 9714 ft 273 kts 137°
2026-05-05 21:43 37.08293 29.04172 9423 ft 267 kts 142°
2026-05-05 21:43 37.06637 29.05146 9100 ft 262 kts 171°
2026-05-05 21:44 37.04836 29.05036 8736 ft 262 kts 197°
2026-05-05 21:44 37.03128 29.04178 8117 ft 265 kts 209°
2026-05-05 21:44 37.01537 29.03078 7554 ft 265 kts 211°
2026-05-05 21:44 36.99946 29.01912 7014 ft 265 kts 211°
2026-05-05 21:45 36.98365 29.00749 6478 ft 264 kts 211°
2026-05-05 21:45 36.96792 28.99594 5956 ft 262 kts 211°
2026-05-05 21:45 36.95221 28.98443 5435 ft 261 kts 210°
2026-05-05 21:45 36.93694 28.97208 4893 ft 260 kts 218°
2026-05-05 21:46 36.92326 28.95789 4614 ft 249 kts 221°
2026-05-05 21:46 36.91096 28.94473 4418 ft 218 kts 221°
2026-05-05 21:46 36.89988 28.93291 4240 ft 203 kts 221°
2026-05-05 21:46 36.88945 28.92182 4080 ft 190 kts 221°
2026-05-05 21:47 36.87937 28.91111 3957 ft 187 kts 221°
2026-05-05 21:47 36.86999 28.90117 3688 ft 170 kts 221°
2026-05-05 21:47 36.86122 28.89189 3492 ft 163 kts 221°
2026-05-05 21:47 36.85189 28.88380 3304 ft 162 kts 211°
2026-05-05 21:48 36.84207 28.87661 3048 ft 161 kts 210°
2026-05-05 21:48 36.83253 28.86962 2783 ft 160 kts 210°
2026-05-05 21:48 36.82276 28.86266 2488 ft 159 kts 210°
2026-05-05 21:48 36.81339 28.85580 2251 ft 158 kts 211°
2026-05-05 21:49 36.80387 28.84882 1989 ft 157 kts 210°
2026-05-05 21:49 36.79454 28.84201 1704 ft 156 kts 211°
2026-05-05 21:49 36.78564 28.83433 1467 ft 155 kts 224°
2026-05-05 21:49 36.77798 28.82474 1222 ft 155 kts 227°
2026-05-05 21:50 36.77034 28.81554 968 ft 152 kts 219°
2026-05-05 21:50 36.76114 28.80901 700 ft 151 kts 198°
2026-05-05 21:50 36.75105 28.80540 497 ft 151 kts 194°
2026-05-05 21:50 36.74096 28.80206 325 ft 149 kts 195°
2026-05-05 21:51 36.73097 28.79858 152 ft 149 kts 195°
2026-05-05 21:51 36.72110 28.79519 31 ft 137 kts 195°
2026-05-05 21:51 36.71394 28.79275 25 ft 73 kts 196°
2026-05-05 21:51 36.71066 28.79164 23 ft 29 kts 195°
2026-05-05 21:52 36.70797 28.79068 21 ft 14 kts 202°
2026-05-05 21:52 36.70708 28.79011 19 ft 14 kts 212°
2026-05-05 21:52 36.70636 28.78945 19 ft 9 kts 221°
2026-05-05 21:53 36.70599 28.78901 20 ft 4 kts 225°
2026-05-05 21:53 36.70580 28.78874 21 ft 3 kts 236°
2026-05-05 21:53 36.70573 28.78840 21 ft 6 kts 273°
2026-05-05 21:53 36.70608 28.78802 21 ft 9 kts 357°
2026-05-05 21:54 36.70700 28.78826 21 ft 18 kts 15°
2026-05-05 21:54 36.70832 28.78870 21 ft 19 kts 15°
2026-05-05 21:54 36.70954 28.78912 21 ft 17 kts 15°
2026-05-05 21:54 36.71077 28.78954 23 ft 23 kts 15°
2026-05-05 21:55 36.71245 28.79011 25 ft 24 kts 15°
2026-05-05 21:55 36.71397 28.79063 26 ft 21 kts 15°
2026-05-05 21:55 36.71535 28.79110 26 ft 19 kts 15°
2026-05-05 21:55 36.71657 28.79151 28 ft 17 kts 15°
2026-05-05 21:56 36.71791 28.79196 30 ft 22 kts 15°
2026-05-05 21:56 36.71934 28.79246 32 ft 20 kts 15°
2026-05-05 21:56 36.72063 28.79289 33 ft 17 kts 15°
2026-05-05 21:56 36.72163 28.79323 35 ft 11 kts 15°
2026-05-05 21:57 36.72234 28.79345 34 ft 8 kts
2026-05-05 21:57 36.72277 28.79315 35 ft 6 kts 294°
2026-05-05 21:57 36.72288 28.79266 36 ft 4 kts 285°
2026-05-05 21:57 36.72297 28.79229 37 ft 5 kts 285°
2026-05-05 21:58 36.72318 28.79189 38 ft 5 kts 335°
2026-05-05 21:58 36.72370 28.79186 38 ft 9 kts
2026-05-05 21:58 36.72428 28.79190 38 ft 7 kts 329°
2026-05-05 21:58 36.72447 28.79151 38 ft 4 kts 284°
2026-05-05 21:59 36.72451 28.79132 38 ft 1 kts 284°
2026-05-05 21:59 36.72452 28.79123 38 ft 1 kts 284°
2026-05-05 21:59 36.72454 28.79116 38 ft 0 kts 284°